カタログに戻る

STARLINK-34929

運用中通信SSO
NORAD 65178·PAYLOAD·🇺🇸 United States

打ち上げ Aug 14, 2025 から Vandenberg Space Force Base

Loading…

次のパス (今後24時間)

TLE

最新Source: CelesTrak SupGP

元期: Sep 15, 2026, 03:55 UTC

1 65178C 25175E   26258.16368056 -.00009127  00000+0 -28308-3 0  2587
2 65178  97.2845 127.2719 0002335 101.0964  81.4338 15.33469010    17

AllMySatでSTARLINK-34929をリアルタイム追跡

Download on the App Store